Location: Unspecified
(48.2082°N, 0.0000°E)
Time: 07:36:54
(UTC+00:00)

Transit 4A - Pass Details

Date: 23 June 2019
Orbit: 862 x 982 km, 66.8° (Epoch: 19 July)

Event Time Altitude Azimuth Distance (km) Brightness Sun altitude
Rises 14:35:31 0° 324° (NW) 3,697 11.1 50.9°
Reaches altitude 10° 14:38:33 10° 336° (NNW) 2,744 10.5 50.5°
Maximum altitude 14:43:58 28° 34° (NNE) 1,763 9.3 49.6°
Drops below altitude 10° 14:49:17 10° 91° (E) 2,699 10.1 48.8°
Sets 14:52:13 0° 103° (ESE) 3,626 10.7 48.4°
